|
Gbstr 26 Del rocket - Orbit
|
Morehead State University;
00:33:55
| Home | Info | Passes |
|
View from above orbital plane
|
View from above satellite
|
Ground track
|
The orbit data is extracted from the following two-line orbital elements,
1 25876U 99041E 13168.81036624 .00000578 00000-0 14319-3 0 1319
2 25876 051.7654 308.0405 0546195 099.5022 050.0320 14.00931559709626
| Epoch (UTC): | 17 June 2013 19:26:55 |
| Eccentricity: | 0.0546195 |
| inclination: | 51.7654° |
| perigee height: | 493 km |
| apogee height: | 1287 km |
| right ascension of ascending node: | 308.0405° |
| argument of perigee: | 99.5022° |
| revolutions per day: | 14.00931559 |
| mean anomaly at epoch: | 50.0320° |
| orbit number at epoch: | 70962 |
The dashed part of the orbit path shows where the satellite is in the earth's shadow,
|
|